Asteroid 2012 VO7
(Preview)
Asteroids 2012
0
272
Orbital elements:
2012 VO7 Earth MOID = 0.1525 AU
Epoch 2012 Sept. 30.0 TT = JDT 2456200.5 MPC
M 322.69818 (2000.0) P Q
n 0.33350051 Peri. 56.01949 -0.23221733 -0.96982246
a 2.0593890 Node 47.59127 +0.85592279 -0.24003141
e 0.4609706 Incl. 5.77490 +0.46202953 -0.04277049
P 2.96 H 21.7 G 0...
Asteroid 2012 VN7
(Preview)
Asteroids 2012
0
253
Orbital elements:
2012 VN7 Earth MOID = 0.2900 AU
Epoch 2012 Oct. 20.0 TT = JDT 2456220.5 MPC
M 350.85019 (2000.0) P Q
n 0.27864064 Peri. 134.30123 +0.96151617 -0.26803840
a 2.3215235 Node 241.33267 +0.22841740 +0.90191888
e 0.4470562 Incl. 3.94396 +0.15268315 +0.33867057
P 3.54 H 19.4 G...
Asteroid 2003 SL215
(Preview)
Asteroids 2012
0
252
Orbital elements:
2003 SL215 Earth MOID = 0.3032 AU
Epoch 2012 Sept. 30.0 TT = JDT 2456200.5 MPC
M 0.54256 (2000.0) P Q
n 0.22008797 Peri. 134.06162 +0.95499690 -0.27102520
a 2.7168887 Node 242.00605 +0.21781427 +0.91659637
e 0.5283119 Incl. 7.84509 +0.20134015 +0.29393271
P 4.48 H 20.7...
Asteroid 2012 VT6
(Preview)
Asteroids 2012
0
263
Orbital elements:
2012 VT6 Earth MOID = 0.0807 AU
Epoch 2012 Sept. 30.0 TT = JDT 2456200.5 MPC
M 25.60127 (2000.0) P Q
n 0.63525483 Peri. 284.09820 +0.76186661 +0.63835689
a 1.3402034 Node 36.41791 -0.49966932 +0.68708902
e 0.2976639 Incl. 10.65994 -0.41217696 +0.34700023
P 1.55 H 22.8 G...
Asteroid 2012 VS6
(Preview)
Asteroids 2012
0
267
Orbital elements:
2012 VS6 Earth MOID = 0.0896 AU
Epoch 2012 Sept. 30.0 TT = JDT 2456200.5 MPC
M 24.23094 (2000.0) P Q
n 0.68467834 Peri. 91.63659 +0.60090862 +0.72017783
a 1.2749065 Node 222.51961 -0.76649483 +0.64222651
e 0.3556243 Incl. 30.87053 +0.22670356 +0.26246715
P 1.44 H 23.8 G...
Asteroid 2012 VR6
(Preview)
Asteroids 2012
0
231
Orbital elements:
2012 VR6
Epoch 2012 Sept. 30.0 TT = JDT 2456200.5 MPC
M 349.66474 (2000.0) P Q
n 0.24131668 Peri. 178.16163 +0.67714651 -0.71701587
a 2.5551191 Node 229.17158 +0.67230734 +0.69421869
e 0.4289713 Incl. 12.62704 +0.29912447 +0.06283833
P 4.08 H 22.2 G 0.15 U 9 MPEC 2012 - V...
Asteroid 2012 VP6
(Preview)
Asteroids 2012
0
234
Orbital elements:
2012 VP6 Earth MOID = 0.1139 AU
Epoch 2012 Sept. 30.0 TT = JDT 2456200.5 MPC
M 356.30849 (2000.0) P Q
n 0.68622534 Peri. 147.32848 +0.97514647 -0.19698583
a 1.2729897 Node 224.39607 +0.15904853 +0.94105058
e 0.1394998 Incl. 8.33525 +0.15424955 +0.27499161
P 1.44 H 24.1...
Asteroid 2012 VN6
(Preview)
Asteroids 2012
0
229
Orbital elements:
2012 VN6 Earth MOID = 0.2130 AU
Epoch 2012 Sept. 30.0 TT = JDT 2456200.5 MPC
M 79.16754 (2000.0) P Q
n 0.93130905 Peri. 25.84863 -0.47078967 +0.85624426
a 1.0385008 Node 217.15496 -0.85815228 -0.50037082
e 0.4554162 Incl. 20.61083 -0.20477242 +0.12835425
P 1.06 H 21.6 G...
Asteroid 2012 VM6
(Preview)
Asteroids 2012
0
223
Orbital elements:
2012 VM6 Earth MOID = 0.0364 AU
Epoch 2012 Sept. 30.0 TT = JDT 2456200.5 MPC
M 29.30939 (2000.0) P Q
n 0.82236437 Peri. 98.55525 +0.82470587 +0.56186110
a 1.1283050 Node 227.28946 -0.54730531 +0.76407718
e 0.1665037 Incl. 5.04324 -0.14253814 +0.31701444
P 1.20 H 25.1 G 0...
Asteroid 2012 VL6
(Preview)
Asteroids 2012
0
283
Orbital elements:
2012 VL6 PHA, Earth MOID = 0.0284 AU
Epoch 2012 Sept. 30.0 TT = JDT 2456200.5 MPC
M 346.71725 (2000.0) P Q
n 0.27771676 Peri. 18.53014 +0.78362149 -0.61907688
a 2.3266693 Node 19.99195 +0.54911596 +0.65125705
e 0.5654601 Incl. 8.71116 +0.29053229 +0.43887136
P 3.55 H 20...
Asteroid 2012 VK6
(Preview)
Asteroids 2012
0
271
Orbital elements:
2012 VK6 PHA, Earth MOID = 0.0264 AU
Epoch 2012 Sept. 30.0 TT = JDT 2456200.5 MPC
M 11.84778 (2000.0) P Q
n 0.37437171 Peri. 333.51351 -0.04871990 +0.99839487
a 1.9066341 Node 293.68229 -0.91070712 -0.05627764
e 0.6553324 Incl. 1.80717 -0.41016936 +0.00636505
P 2.63 H 2...
Asteroid 2012 VJ6
(Preview)
Asteroids 2012
0
236
Orbital elements:
2012 VJ6 Earth MOID = 0.0640 AU
Epoch 2012 Sept. 30.0 TT = JDT 2456200.5 MPC
M 321.57180 (2000.0) P Q
n 0.21089973 Peri. 157.10891 -0.95160827 -0.30710743
a 2.7952374 Node 5.04621 +0.25842804 -0.81951806
e 0.7026640 Incl. 7.35309 +0.16630288 -0.48381316
P 4.67 H 18.6 G 0...
Asteroid 2012 VH6
(Preview)
Asteroids 2012
0
250
Orbital elements:
2012 VH6 Earth MOID = 0.1943 AU
Epoch 2012 Sept. 30.0 TT = JDT 2456200.5 MPC
M 7.86990 (2000.0) P Q
n 0.29051228 Peri. 236.20490 +0.96504910 +0.22821807
a 2.2578394 Node 110.31172 -0.17102239 +0.92090830
e 0.4837534 Incl. 7.89571 -0.19857385 +0.31598168
P 3.39 H 21.3 G 0...
Asteroid 2012 VG6
(Preview)
Asteroids 2012
0
234
Orbital elements:
2012 VG6 Earth MOID = 0.1872 AU
Epoch 2012 Sept. 30.0 TT = JDT 2456200.5 MPC
M 338.33449 (2000.0) P Q
n 0.27450586 Peri. 85.19593 +0.14677610 -0.98913868
a 2.3447775 Node 356.33607 +0.85197096 +0.13044043
e 0.5222046 Incl. 7.04557 +0.50259552 +0.06774924
P 3.59 H 22.4 G...
Asteroid 2012 VF6
(Preview)
Asteroids 2012
0
236
Orbital elements:
2012 VF6 Earth MOID = 0.3790 AU
Epoch 2012 Sept. 30.0 TT = JDT 2456200.5 MPC
M 345.67626 (2000.0) P Q
n 0.16633875 Peri. 218.56411 +0.41252682 -0.72289658
a 3.2744655 Node 219.35736 +0.88651859 +0.17862442
e 0.6107664 Incl. 60.93477 -0.20953860 -0.66746824
P 5.93 H 21....
«First < 1
1133 1134 1135 1136 1137
2461 > Last» | Page
